Change the Weather History Date:

Thursday, July 4, 2013

  Actual Average (KEDW) Record (KEDW)
Temperature  
Mean Temperature 92 °F -  
Max Temperature 109 °F 95 °F 109 °F (2007)
Min Temperature 75 °F 63 °F 57 °F (1998)
Cooling Degree Days 26    
Growing Degree Days 42 (Base 50)    
Moisture  
Dew Point 46 °F    
Average Humidity 24    
Maximum Humidity 36    
Minimum Humidity 11    
Precipitation  
Precipitation 0.00 in - - ()
Sea Level Pressure  
Sea Level Pressure 29.69 in    
Wind  
Wind Speed 8 mph (SSW)    
Max Wind Speed 31 mph    
Max Gust Speed 37 mph    
Visibility 10 miles    
Events      
Averages and records for this station are not official NWS values.
T = Trace of Precipitation, MM = Missing Value Source: NWS Daily Summary

Daily Weather History Graph

Daily Weather History Graph

Search for Another Location

Airport or City:

Trip Planner

Search our weather history database for the weather conditions in past years. The results will help you decide how hot, cold, wet, or windy it might be!

Date:

Astronomy

Jul. 04, 2013 Rise Set
Actual Time 5:42 AM PDT 8:09 PM PDT
Civil Twilight 5:13 AM PDT 8:38 PM PDT
Nautical Twilight 4:36 AM PDT 9:14 PM PDT
Astronomical Twilight 3:56 AM PDT 9:54 PM PDT
Moon 2:59 AM PDT (7/4) 5:19 PM PDT (7/4)
Length of Visible Light 15h 25m
Length of Day
14h 26m
Waning Crescent, 11% of the Moon is Illuminated
Jul 4
Waning Crescent
Jul 8
New
Jul 15
First Quarter
Jul 22
Full
Jul 29
Last Quarter

Hourly Weather History & Observations

Time (PDT) Temp. Dew Point Humidity Pressure Visibility Wind Dir Wind Speed Gust Speed Precip Events Conditions
12:55 AM 80.1 °F 46.9 °F 31% 29.74 in 10.0 mi Calm Calm - N/A   Clear
1:55 AM 80.1 °F 46.9 °F 31% 29.73 in 10.0 mi South 3.5 mph - N/A   Clear
2:55 AM 79.0 °F 46.9 °F 32% 29.71 in 10.0 mi SSW 6.9 mph - N/A   Clear
3:55 AM 77.0 °F 45.0 °F 32% 29.70 in 10.0 mi South 9.2 mph - N/A   Clear
4:55 AM 77.0 °F 46.0 °F 33% 29.70 in 10.0 mi South 6.9 mph - N/A   Clear
5:55 AM 75.0 °F 46.0 °F 36% 29.71 in 10.0 mi South 8.1 mph - N/A   Clear
6:55 AM 75.9 °F 46.0 °F 35% 29.73 in 10.0 mi SSW 3.5 mph - N/A   Clear
7:55 AM 81.0 °F 46.0 °F 29% 29.74 in 10.0 mi Calm Calm - N/A   Clear
8:55 AM 84.9 °F 46.0 °F 26% 29.74 in 10.0 mi South 3.5 mph - N/A   Clear
9:55 AM 91.9 °F 46.0 °F 21% 29.73 in 10.0 mi South 3.5 mph - N/A   Clear
10:55 AM 97.0 °F 45.0 °F 17% 29.72 in 10.0 mi SSE 3.5 mph - N/A   Clear
11:55 AM 102.0 °F 45.0 °F 14% 29.70 in 10.0 mi Variable 4.6 mph - N/A   Clear
12:55 PM 105.1 °F 43.0 °F 12% 29.69 in 10.0 mi Calm Calm - N/A   Clear
1:55 PM 107.1 °F 42.1 °F 11% 29.66 in 10.0 mi South 6.9 mph - N/A   Clear
2:55 PM 108.0 °F 43.0 °F 11% 29.65 in 10.0 mi SSW 16.1 mph 27.6 mph N/A   Clear
3:55 PM 107.1 °F 44.1 °F 12% 29.63 in 10.0 mi SW 24.2 mph 31.1 mph N/A   Clear
4:55 PM 104.0 °F 45.0 °F 14% 29.62 in 10.0 mi SW 26.5 mph 33.4 mph N/A   Clear
5:55 PM 99.0 °F 46.9 °F 17% 29.63 in 10.0 mi SW 31.1 mph 36.8 mph N/A   Clear
6:55 PM 96.1 °F 48.9 °F 20% 29.65 in 10.0 mi SW 24.2 mph 31.1 mph N/A   Clear
7:55 PM 91.0 °F 51.1 °F 25% 29.67 in 10.0 mi SW 18.4 mph 27.6 mph N/A   Clear
8:55 PM 87.1 °F 51.1 °F 29% 29.69 in 10.0 mi SW 17.3 mph - N/A   Clear
9:55 PM 84.9 °F 48.9 °F 29% 29.69 in 10.0 mi SSW 17.3 mph - N/A   Clear
10:55 PM 82.9 °F 48.9 °F 31% 29.70 in 10.0 mi SSW 12.7 mph - N/A   Clear
11:55 PM 82.0 °F 48.9 °F 31% 29.70 in 10.0 mi SSW 15.0 mph - N/A   Clear